Weather History for Alma, GA

Change the Weather History Date:

Wednesday, February 13, 2013

  Actual Average Record
Temperature  
Mean Temperature 63 °F 54 °F  
Max Temperature 76 °F 65 °F 80 °F (1976)
Min Temperature 50 °F 43 °F 18 °F (1955)
Degree Days  
Heating Degree Days 2 11  
Month to date heating degree days 122 161  
Since 1 July heating degree days 973 1250  
Cooling Degree Days 0 0  
Month to date cooling degree days 3 0  
Year to date cooling degree days 27 5  
Growing Degree Days 13 (Base 50)    
Moisture  
Dew Point 59 °F    
Average Humidity 66    
Maximum Humidity 93    
Minimum Humidity 38    
Precipitation  
Precipitation 0.83 in 0.13 in 1.73 in (1960)
Month to date precipitation 3.97 1.73  
Year to date precipitation 4.54 5.99  
Snow  
Snow 0.00 in 0.00 in 0.00 in ()
Month to date snowfall 0.0 0.0  
Since 1 July snowfall 0.0 0.1  
Snow Depth 0.00 in    
Sea Level Pressure  
Sea Level Pressure 29.81 in    
Wind  
Wind Speed 8 mph (WNW)    
Max Wind Speed 20 mph    
Max Gust Speed 28 mph    
Visibility 8 miles    
Events Rain , Thunderstorm    
T = Trace of Precipitation, MM = Missing Value Source: NWS Daily Summary

Daily Weather History Graph

Daily Weather History Graph

Search for Another Location

Airport:

Trip Planner

Search our weather history database for the weather conditions in past years. The results will help you decide how hot, cold, wet, or windy it might be!

Date:

Astronomy

Feb. 13, 2013 Rise Set
Actual Time 7:13 AM EST 6:15 PM EST
Civil Twilight 6:48 AM EST 6:40 PM EST
Nautical Twilight 6:19 AM EST 7:09 PM EST
Astronomical Twilight 5:51 AM EST 7:37 PM EST
Moon 8:59 AM EST (2/13) 9:57 PM EST (2/13)
Length of Visible Light 11h 52m
Length of Day
11h 02m
Waxing Crescent, 13% of the Moon is Illuminated
Feb 13
Waxing Crescent
Feb 17
First Quarter
Feb 25
Full
Mar 4
Last Quarter
Mar 11
New

Hourly Weather History & Observations

Time (EST) Temp. Dew Point Humidity Pressure Visibility Wind Dir Wind Speed Gust Speed Precip Events Conditions
12:03 AM 60.8 °F 60.8 °F 100% 29.81 in 1.0 mi Variable 6.9 mph 21.9 mph 0.27 in Rain Heavy Rain
12:11 AM 60.8 °F 60.8 °F 100% 29.82 in 3.0 mi NNW 6.9 mph 16.1 mph 0.29 in Rain Rain
12:15 AM 60.8 °F 59.0 °F 94% 29.82 in 4.0 mi North 5.8 mph - 0.29 in Rain Light Rain
12:27 AM 60.8 °F 59.0 °F 94% 29.81 in 3.0 mi Calm Calm - 0.33 in Rain , Thunderstorm Rain
12:39 AM 60.8 °F 59.0 °F 94% 29.81 in 8.0 mi Calm Calm - 0.33 in Rain , Thunderstorm Light Rain
12:42 AM 60.8 °F 59.0 °F 94% 29.81 in 8.0 mi Calm Calm - 0.34 in Rain Light Rain
12:53 AM 61.0 °F 59.0 °F 93% 29.78 in 4.0 mi SE 4.6 mph - 0.36 in Rain Light Rain
1:35 AM 60.8 °F 60.8 °F 100% 29.78 in 9.0 mi Calm Calm - 0.00 in Rain Light Rain
1:43 AM 62.6 °F 60.8 °F 94% 29.79 in 10.0 mi Variable 4.6 mph - 0.00 in   Overcast
1:53 AM 64.0 °F 62.1 °F 93% 29.77 in 10.0 mi South 8.1 mph - 0.00 in   Overcast
2:04 AM 64.4 °F 62.6 °F 94% 29.77 in 10.0 mi SW 4.6 mph - N/A   Overcast
2:53 AM 66.9 °F 64.9 °F 93% 29.75 in 5.0 mi Calm Calm - 0.00 in Rain , Thunderstorm Light Rain
3:04 AM 66.2 °F 64.4 °F 94% 29.76 in 1.8 mi SSW 3.5 mph - 0.10 in Rain , Thunderstorm Heavy Thunderstorms and Rain
3:23 AM 66.2 °F 64.4 °F 94% 29.73 in 2.0 mi NNW 3.5 mph - 0.19 in Rain , Thunderstorm Light Thunderstorms and Rain
3:31 AM 66.2 °F 66.2 °F 100% 29.74 in 2.5 mi NW 11.5 mph 17.3 mph 0.21 in Rain , Thunderstorm Light Rain
3:38 AM 69.8 °F 66.2 °F 88% 29.75 in 1.8 mi West 13.8 mph 19.6 mph 0.29 in Rain , Thunderstorm Heavy Rain
3:43 AM 69.8 °F 66.2 °F 88% 29.75 in 2.0 mi West 10.4 mph 19.6 mph 0.30 in Rain Rain
3:53 AM 66.9 °F 64.0 °F 90% 29.76 in 8.0 mi WNW 12.7 mph 19.6 mph 0.31 in Rain Light Rain
4:03 AM 66.2 °F 64.4 °F 94% 29.76 in 10.0 mi WNW 8.1 mph - 0.00 in   Overcast
4:37 AM 64.4 °F 62.6 °F 94% 29.76 in 8.0 mi WNW 4.6 mph - 0.01 in Rain , Thunderstorm Light Rain
4:42 AM 64.4 °F 62.6 °F 94% 29.76 in 4.0 mi Calm Calm - 0.02 in Rain , Thunderstorm Rain
4:53 AM 64.9 °F 63.0 °F 93% 29.75 in 10.0 mi West 3.5 mph - 0.02 in   Overcast
5:06 AM 64.4 °F 62.6 °F 94% 29.75 in 10.0 mi Calm Calm - N/A   Overcast
5:23 AM 64.4 °F 62.6 °F 94% 29.76 in 10.0 mi NNW 8.1 mph - N/A Thunderstorm Overcast
5:34 AM 64.4 °F 62.6 °F 94% 29.77 in 2.5 mi NNW 6.9 mph - 0.07 in Rain , Thunderstorm Thunderstorms and Rain
5:43 AM 64.4 °F 62.6 °F 94% 29.77 in 1.5 mi Variable 6.9 mph - 0.19 in Rain , Thunderstorm Heavy Thunderstorms and Rain
5:53 AM 64.0 °F 62.1 °F 93% 29.76 in 2.5 mi WNW 3.5 mph - 0.23 in Rain , Thunderstorm Thunderstorms and Rain
5:56 AM 64.4 °F 62.6 °F 94% 29.78 in 4.0 mi WSW 5.8 mph - 0.00 in Rain , Thunderstorm Light Thunderstorms and Rain
6:01 AM 64.4 °F 62.6 °F 94% 29.78 in 9.0 mi West 5.8 mph - 0.00 in Rain , Thunderstorm Light Rain
6:12 AM 66.2 °F 62.6 °F 88% 29.78 in 10.0 mi West 4.6 mph - 0.00 in   Overcast
7:16 AM 66.2 °F 64.4 °F 94% 29.79 in 10.0 mi Calm Calm - N/A   Overcast
7:33 AM 66.2 °F 64.4 °F 94% 29.80 in 10.0 mi Calm Calm - N/A   Overcast
7:53 AM 66.0 °F 64.0 °F 93% 29.81 in 10.0 mi NW 4.6 mph - N/A   Overcast
8:26 AM 64.4 °F 62.6 °F 94% 29.82 in 10.0 mi West 4.6 mph - N/A   Overcast
8:49 AM 66.2 °F 64.4 °F 94% 29.83 in 10.0 mi Calm Calm - N/A   Overcast
8:53 AM 66.0 °F 64.0 °F 93% 29.83 in 10.0 mi Calm Calm - N/A   Overcast
9:18 AM 68.0 °F 64.4 °F 88% 29.83 in 10.0 mi West 3.5 mph - N/A   Scattered Clouds
9:53 AM 71.1 °F 68.0 °F 90% 29.83 in 9.0 mi West 6.9 mph - N/A   Mostly Cloudy
10:30 AM 73.4 °F 66.2 °F 78% 29.83 in 8.0 mi WSW 10.4 mph - N/A   Mostly Cloudy
10:53 AM 75.0 °F 66.0 °F 73% 29.83 in 9.0 mi WSW 11.5 mph 19.6 mph N/A   Partly Cloudy
11:53 AM 75.9 °F 63.0 °F 64% 29.80 in 10.0 mi West 12.7 mph - N/A   Clear
12:53 PM 73.0 °F 57.0 °F 57% 29.79 in 10.0 mi West 12.7 mph - N/A   Clear
1:53 PM 73.9 °F 50.0 °F 43% 29.77 in 10.0 mi WSW 15.0 mph 20.7 mph N/A   Partly Cloudy
2:53 PM 71.1 °F 44.1 °F 38% 29.77 in 10.0 mi West 12.7 mph 25.3 mph N/A   Mostly Cloudy
3:53 PM 69.1 °F 46.0 °F 44% 29.82 in 10.0 mi West 16.1 mph 20.7 mph N/A   Overcast
4:53 PM 68.0 °F 43.0 °F 40% 29.85 in 10.0 mi West 15.0 mph 27.6 mph N/A   Overcast
5:53 PM 66.0 °F 45.0 °F 47% 29.85 in 10.0 mi West 5.8 mph 17.3 mph N/A   Overcast
6:53 PM 64.0 °F 45.0 °F 50% 29.86 in 10.0 mi West 10.4 mph - N/A   Overcast
7:53 PM 62.1 °F 48.0 °F 60% 29.89 in 10.0 mi West 6.9 mph - 0.00 in   Overcast
8:53 PM 55.0 °F 52.0 °F 89% 29.92 in 7.0 mi NW 13.8 mph 21.9 mph 0.02 in Rain Light Rain
8:57 PM 53.6 °F 51.8 °F 94% 29.94 in 6.0 mi WNW 13.8 mph 21.9 mph 0.02 in Rain Rain
9:42 PM 51.8 °F 48.2 °F 88% 29.94 in 7.0 mi NW 12.7 mph 25.3 mph 0.10 in Rain Rain
9:53 PM 51.1 °F 46.9 °F 86% 29.92 in 8.0 mi NW 11.5 mph - 0.12 in Rain Light Rain
10:09 PM 51.8 °F 46.4 °F 82% 29.95 in 10.0 mi WNW 11.5 mph - 0.00 in   Overcast
10:53 PM 52.0 °F 46.9 °F 83% 29.94 in 10.0 mi WNW 5.8 mph - 0.00 in   Overcast
11:53 PM 50.0 °F 46.9 °F 89% 29.95 in 10.0 mi Calm Calm - N/A   Partly Cloudy